Regional Weather Roundup
Issued by NWS

Home | Current Version | Previous Version | Graphics & Text | Print | Product List | Glossary Off
Versions: 1 2 3 4 5 6 7 8 9 10 11 12 13 14 15 16 17 18 19 20 21 22 23 24 25 26 27 28 29 30 31 32 33 34 35 36 37 38 39 40 41 42 43 44 45 46 47 48 49 50

178
ASUS43 KDMX 170306
RWRIA

WEATHER ROUNDUP FOR IOWA
NATIONAL WEATHER SERVICE DES MOINES IA
900 PM CST TUE JAN 16 2018

NOTE: "FAIR" INDICATES FEW OR NO CLOUDS BELOW 12,000 FEET WITH NO
SIGNIFICANT WEATHER AND/OR OBSTRUCTIONS TO VISIBILITY.

* - THESE STATIONS ARE NOT NWS STATIONS...THUS NOT UNDER NWS
QUALITY CONTROL.  THEY ALSO DO NOT REPORT WEATHER SUCH
AS PRECIPITATION OR FOG.

IAZ001>003-012>014-020>022-031>034-043>046-170400-
   NORTHWEST IOWA

CITY           SKY/WX    TMP DP  RH WIND       PRES   REMARKS
CARROLL *      CLOUDY    -4  -8  84 CALM      30.63F
CHEROKEE *     CLOUDY    -3  -6  89 S3        30.61F
DENISON *      CLEAR      0  -4  85 CALM      30.65F
LE MARS *      CLEAR     -2  -6  84 S5        30.62S WCI -12
ORANGE CITY *  CLEAR      0  -2  92 CALM      30.58F
SHELDON *      CLOUDY    -2  -6  84 SW6       30.56F WCI -14
SIOUX CITY     CLOUDY    -1  -5  82 S5        30.64F WCI -11
SPENCER        CLOUDY    -5 -10  79 SW6       30.57F WCI -18
STORM LAKE *   CLOUDY     0  -4  85 W10       30.58F WCI -17
$$

IAZ055>058-069>071-079>083-090>094-170400-
   SOUTHWEST IOWA

CITY           SKY/WX    TMP DP  RH WIND       PRES   REMARKS
ATLANTIC *     CLOUDY    -4  -8  84 CALM      30.66F
AUDUBON *      CLOUDY    -4  -8  84 CALM      30.63F
CLARINDA *     CLOUDY    -4  -8  84 CALM        N/A
COUNCIL BLFS * CLOUDY     7   5  92 CALM      30.65F
CRESTON *      CLOUDY    -2  -6  84 W7        30.65F WCI -16
HARLAN  *      CLOUDY    -2  -6  84 CALM      30.68F
LAMONI         CLOUDY     0  -4  83 W6        30.66F WCI -12
RED OAK *      CLOUDY    -2  -6  84 CALM      30.69F
SHENANDOAH *   CLOUDY     0  -4  85 CALM      30.70F
$$

IAZ047>049-059>061-072>074-084-170400-
   CENTRAL IOWA

CITY           SKY/WX    TMP DP  RH WIND       PRES   REMARKS
AMES           CLOUDY    -3  -6  87 W9        30.65F WCI -19
ANKENY *       CLOUDY     0  -4  85 W3        30.68S
BOONE *        CLOUDY     0  -4  85 W6        30.62S WCI -12
CHARITON *     CLOUDY     0  -4  85 W7        30.66S WCI -13
DES MOINES     CLOUDY    -1  -5  82 CALM      30.66F
GRINNELL*      PTCLDY     0  -4  84 W7        30.64F WCI -13
KNOXVILLE *    CLOUDY    -2  -9  71 W6        30.65F WCI -14
MARSHALLTOWN   CLOUDY     0  -5  79 W8        30.63F WCI -14
NEWTON *       CLOUDY    -2  -6  84 W3        30.65F
PELLA *        CLOUDY     1  -4  81 W5        30.68S WCI  -9
PERRY *          N/A     -4  -8  84 W7        30.66S WCI -18
$$

IAZ004>006-015-016-023>025-035-036-170400-
   NORTH CENTRAL IOWA

CITY           SKY/WX    TMP DP  RH WIND       PRES   REMARKS
ALGONA *       CLOUDY     0 N/A N/A SW7       30.58S WCI -13
CLARION *      CLOUDY    -6  -8  92 SW8       30.60F WCI -21
ESTHERVILLE    CLEAR     -1  -4  87 W7        30.56F WCI -14
FORT DODGE *   CLOUDY    -5  -9  83 SW3       30.62F
MASON CITY     CLOUDY    -2  -7  79 W9        30.58F WCI -18
FOREST CITY *    N/A     -6  -9  84 CALM      30.58S
WEBSTER CITY * CLOUDY    -2  -8  78 W8        30.60F WCI -17
IOWA FALLS *     N/A     -2  -6  82 W5        30.61F WCI -12
$$

IAZ007>011-017>019-026>030-037>042-050>054-066-170400-
   NORTHEAST IOWA

CITY           SKY/WX    TMP DP  RH WIND       PRES   REMARKS
CEDAR RAPIDS     N/A      1  -4  79 NW10      30.61F WCI -15
CHARLES CITY *   N/A     -2  -6  84 W3        30.59S
CLINTON *        N/A      2  -1  88 W10       30.61S WCI -14
DECORAH *        N/A      0  -2  92 W7        30.55F WCI -13
DUBUQUE          N/A      2  -3  80 W7        30.56S WCI -11
MONTICELLO *     N/A      0  -6  78 W5        30.61S WCI -10
OELWEIN *      MOCLDY     1   0  92 W8        30.59F WCI -12
WATERLOO         N/A      1  -4  79 W5        30.62F WCI  -9
$$

IAZ064-065-067-068-078-170400-
   EAST CENTRAL IOWA

CITY           SKY/WX    TMP DP  RH WIND       PRES   REMARKS
DAVENPORT        N/A      5  -1  76 W10       30.63F WCI -10
IOWA CITY        N/A      3  -3  76 W7        30.66F WCI  -9
MUSCATINE *      N/A      5   0  78 W7        30.67S WCI  -7
QUAD CITIES      N/A      8   2  76 NW12      30.62F WCI  -7
$$

IAZ062-063-075>077-085>089-095>099-170400-
   SOUTHEAST IOWA

CITY           SKY/WX    TMP DP  RH WIND       PRES   REMARKS
BURLINGTON     CLEAR      2  -3  80 W5        30.65F WCI  -8
FAIRFIELD *    CLEAR      3  -4  72 W9        30.65F WCI -11
FORT MADISON * CLEAR      1  -2  85 W3        30.67S
KEOKUK *       CLEAR      3   0  85 W6        30.67F WCI  -8
OSKALOOSA *      N/A     -1  -4  85 W9        30.67S WCI -16
OTTUMWA        CLOUDY     1  -4  79 W6        30.66F WCI -10
WASHINGTON *   CLEAR      1  -2  85 W7        30.66F WCI -11
$$

ABBREVIATIONS USED IN REMARKS
   TC - TEMPERATURES IN CELSIUS
  WCI - WIND CHILL INDEX
   HX - HEAT INDEX
  VSB - VISIBILITY
$$





USA.gov is the U.S. government's official web portal to all federal, state and local government web resources and services.